Location: Castelbiague
(43.0361°N, 0.9246°E)
Time: 09:21:40
(UTC+00:00)

ATLAS CENTAUR R/B - Pass Details

Date: 17 June 2021
Orbit: 472 x 671 km, 64.6° (Epoch: 13 June)

Event Time Altitude Azimuth Distance (km) Brightness Sun altitude
Rises 23:18:53 0° 312° (NW) 2,833 5.7 -23.0°
Reaches altitude 10° 23:21:30 10° 296° (WNW) 1,964 4.6 -23.0°
Enters shadow 23:24:30 21° 254° (WSW) 1,410 3.3 -23.1°
